User: anonymous   Login
Location: Fort Wayne
(41.1310°N, 85.1290°W)
Time: 01:58:34
(UTC-05:00)
Language:

Oscar 19 - Orbit

View from above orbital plane
View from above orbital plane
View from above satellite
View from above satellite

Ground track
Ground track

The orbit data is extracted from the following two-line orbital elements,

1 20442U 90005G   17346.76910095 +.00000015 +00000-0 +21574-4 0  9993
2 20442 098.5924 281.5891 0011532 346.0636 014.0228 14.32881032457134
Epoch (UTC): 12 December 2017 18:27:30
Eccentricity: 0.0011532
inclination: 98.5924°
perigee height: 774 km
apogee height: 790 km
right ascension of ascending node: 281.5891°
argument of perigee: 346.0636°
revolutions per day: 14.32881032
mean anomaly at epoch: 14.0228°
orbit number at epoch: 45713

The dashed part of the orbit path shows where the satellite is in the earth's shadow,  

DLR